Weather Roundup
Issued by NWS

Home | Current Version | Previous Version | Text Only | Print | Product List | Glossary On
Versions: 1 2 3 4 5 6 7 8 9 10 11 12 13 14 15 16 17 18 19 20 21 22 23 24 25 26 27 28 29 30 31 32 33 34 35 36 37 38 39 40 41 42 43 44 45 46 47 48 49 50
069
NZUS93 KARX 111510
HRRWXR

CURRENT HOURLY OBSERVATIONS ACROSS
MUCH OF THE UPPER MISSISSIPPI VALLEY
NATIONAL WEATHER SERVICE LA CROSSE WI
900 AM CST MON DEC 11 2017


...SOUTHEAST MINNESOTA...


CITY           SKY/WX    TMP DP  RH WIND       PRES   REMARKS
ROCHESTER      LGT SNOW  30  30 100 S7        29.70F FOG     WCI  23
ROCHESTER/MAYO CLOUDY    30  29  94 SE3       29.71F
WINONA         CLOUDY    30  27  86 CALM      29.76S
AUSTIN         MIX PCPN  30  27  86 CALM      29.72S
ALBERT LEA     LGT SNOW  32  28  86 W3        29.71F
DODGE CENTER   MIX PCPN  30  30 100 SW8       29.70F WCI  23
PRESTON        CLOUDY    28  24  82 SW6       29.73R WCI  22
OWATONNA       NOT AVBL
FARIBAULT      CLOUDY    32  30  93 CALM      29.71F
$$

...ELSEWHERE IN MINNESOTA...


CITY           SKY/WX    TMP DP  RH WIND       PRES   REMARKS
MINNEAPOLIS    CLOUDY    31  30  96 CALM      29.72S FOG
INTNL FALLS    CLOUDY    20  15  81 N15       29.81R HAZE    WCI   6
DULUTH         LGT SNOW  22  21  96 W6        29.69R VSB 1   WCI  14
RED WING       LGT SNOW  30  25  80 CALM      29.73R
REDWOOD FALLS  CLOUDY    38  32  79 NW17G26   29.77R WCI  28
MANKATO        CLOUDY    36  28  73 NW13      29.73R WCI  27
WORTHINGTON    CLOUDY    36  33  89 NW26G32   29.81R WCI  24
FAIRMONT       CLOUDY    37  32  82 NW24G31   29.75R WCI  26
$$

...SOUTHWEST WISCONSIN...


CITY           SKY/WX    TMP DP  RH WIND       PRES   REMARKS
LA CROSSE      CLOUDY    28  23  81 CALM      29.75F
PRAIRIE DU CHI CLOUDY    29  23  76 E7        29.75F WCI  22
BOSCOBEL       MOSUNNY   26  23  88 CALM      29.77F
LONE ROCK      CLOUDY    25  23  92 E7        29.79F FOG     WCI  17
PLATTEVILLE    CLOUDY    29  26  90 SE9       29.76F WCI  20
FORT MC COY    CLOUDY    28  23  84 CALM      29.75F
CAMP DOUGLAS   CLOUDY    27  23  86 SE7       29.75F WCI  19
MAUSTON-NEW LI CLOUDY    27  23  86 SE8       29.76F WCI  18
VIROQUA        CLOUDY    25  24  96 SE7       29.73F WCI  17
WIS DELLS      CLOUDY    26  22  85 S5        29.77F WCI  20
$$

...ELSEWHERE IN WISCONSIN...


CITY           SKY/WX    TMP DP  RH WIND       PRES   REMARKS
MILWAUKEE      CLOUDY    27  23  85 S9        29.87F WCI  18
MADISON        PTSUNNY   26  22  84 S10       29.80F WCI  16
GREEN BAY      CLOUDY    23  22  96 S8        29.86F WCI  14
EAU CLAIRE     CLOUDY    25  22  88 SE3       29.74S FOG
BLACK RVR FLS  PTSUNNY   27  22  81 CALM      29.75F
MEDFORD        CLOUDY    21  19  94 S6        29.72S WCI  13
WAUSAU         CLOUDY    21  20  96 SE7       29.74F FOG     WCI  12
WIS RAPIDS     CLOUDY    24  21  88 SE6       29.78F WCI  17
MARSHFIELD     CLOUDY    23  21  92 SE7       29.72F FOG     WCI  15
RICE LAKE      CLOUDY    25  24  96 CALM      29.73F FOG
$$

...NORTHEAST IOWA...


CITY           SKY/WX    TMP DP  RH WIND       PRES   REMARKS
WATERLOO       PTSUNNY   33  25  72 S7        29.72F WCI  27
DUBUQUE        MOSUNNY   29  24  82 S6        29.75F WCI  23
DECORAH        CLOUDY    28  25  86 S6        29.71F WCI  22
MASON CITY     LGT SNOW  33  24  69 NW10      29.73R WCI  25
CHARLES CITY   CLOUDY    32  27  80 SE3       29.71F
OELWEIN        PTSUNNY   30  28  93 SE8       29.73F WCI  23
$$

...ELSEWHERE IN IOWA...


CITY           SKY/WX    TMP DP  RH WIND       PRES   REMARKS
DES MOINES     MOSUNNY   42  22  44 W23G35    29.77F
IOWA CITY      CLOUDY    32  25  75 CALM      29.77F
FORT DODGE     CLOUDY    39  27  62 NW17G26   29.77R WCI  30
MARSHALLTOWN   PTSUNNY   35  25  66 W7        29.72F WCI  29
CEDAR RAPIDS   CLOUDY    30  24  78 S6        29.73F WCI  24
$$

...NORTHERN ILLINOIS...


CITY           SKY/WX    TMP DP  RH WIND       PRES   REMARKS
CHICAGO-OHARE  CLOUDY    30  22  72 S12       29.89F WCI  20
CHICAGO-MIDWAY PTSUNNY   30  22  72 S12G21    29.91F WCI  20
MOLINE         PTSUNNY   34  26  72 SE6       29.76F WCI  29
ROCKFORD       CLOUDY    29  23  78 SE10      29.85F WCI  20
PEORIA         MOSUNNY   33  26  75 S10       29.84F WCI  25
$$

NOTE: "FAIR" INDICATES FEW OR NO CLOUDS BELOW 12,000 FEET WITH NO
SIGNIFICANT WEATHER AND/OR OBSTRUCTIONS TO VISIBILITY. WIND
SPEEDS ARE IN MILES-PER-HOUR.




USA.gov is the U.S. government's official web portal to all federal, state and local government web resources and services.